Regional Weather Roundup
Issued by NWS Pendleton, OR

Home | Current Version | Previous Version | Text Only | Print | Product List | Glossary On
Versions: 1 2 3 4 5 6 7 8 9 10 11 12 13 14 15 16 17 18 19 20 21 22 23 24 25 26 27 28 29 30 31 32 33 34 35 36 37 38 39 40 41 42 43 44 45 46 47 48 49 50
537
ASUS46 KPDT 270110
RWRPDT
PENDLETON REGIONAL WEATHER ROUNDUP
NATIONAL WEATHER SERVICE PENDLETON OREGON
500 PM PST SUN FEB 26 2017

NOTE: FAIR INDICATES FEW OR NO CLOUDS BELOW 12,000 FEET WITH NO
SIGNIFICANT WEATHER AND/OR OBSTRUCTIONS TO VISIBILITY.

# INDICATES UNOFFICIAL STATION AND DATA

WAZ520-270210-
EAST SLOPES OF WASHINGTON CASCADES

CITY            SKY/WX      TMP DP  RH  WIND    PRES   REMARKS
#CLE ELUM HS    N/A         33  27  78  SE1     29.63S
#CLE ELUM LAKE  N/A         30  26  85  CALM    29.69R
#GLENWOOD       N/A         34  31  89  S2      29.68S
#MANASTASH CYN  N/A         29  24  81  CALM    29.63R
#NELSON 3SW     N/A         28  26  92  CALM    29.93R
#NILE           N/A         31  28  88  CALM    28.96S
#TEANAWAY 4NE   N/A         32  28  85  CALM    N/A
#TROUT LAKE 1NE N/A         34  32  92  E2      29.69S
#TROUT LAKE 1E  N/A         37  32  82  CALM    29.64R
$$

WAZ521-270210-
SIMCOE HIGHLANDS

CITY            SKY/WX      TMP DP  RH  WIND    PRES   REMARKS
#CENTERVILLE 1SWN/A         33  29  85  CALM    29.67R
#GOLDENDALE 1NE N/A         36  25  64  SW2     N/A
#GOLDENDALE 4W  N/A         37  14  38  SW1     29.68R
#GOODNOE HILLS  N/A         39  32  76  E3      29.57R
#LYLE 6NE       N/A         35  32  89  SW3     29.67R
#PITT 4SE       N/A         31  29  92  S2      29.73R
$$

WAZ026-270210-
KITTITAS VALLEY

CITY            SKY/WX      TMP DP  RH  WIND    PRES   REMARKS
ELLENSBURG AP   CLOUDY      33  29  85  NW6     29.66R
#ELLENSBURG CWU N/A         32  30  92  NW2     29.66S
#ELLENSBURG 3NE N/A         31  30  96  CALM    27.75S
#KITTITAS 4N    N/A         32  27  82  NW3     29.69R
#KITTITAS 3S    N/A         33  29  85  S5      29.70S
#THORP 6N       N/A         29  27  92  CALM    29.75S
$$

WAZ027-270210-
YAKIMA VALLEY

CITY            SKY/WX      TMP DP  RH  WIND    PRES   REMARKS
SUNNYSIDE AP    CLOUDY      37  33  85  CALM    29.68S
YAKIMA AIRPORT  LGT SNOW    35  33  92  W5      29.68S FOG
YAKIMA-VAGABOND CLOUDY      34  29  82  E10     29.65R
#DONALD 2NE     N/A         35  24  64  S3      28.53S
#GRANDVIEW      N/A         36  33  89  CALM    29.72S
#MABTON         N/A         37  35  92  E1      29.68R
#MOXEE 2E       N/A         34   0  23  CALM    29.68R
#NACHES 2SW     N/A         33  31  92  E1      29.64S
#TERRACE HTS    N/A         35  33  92  CALM    29.68S
#TOPPENISH      N/A         36  33  89  CALM    29.64R
#WEST VALLEY    N/A         34  32  92  CALM    29.70S
#W YAKIMA       N/A         33  31  92  CALM    29.73R
#WHITE SWAN 5E  N/A         33  31  92  CALM    29.73R
#WILEY CITY 3W  N/A         34  29  82  CALM    29.64R
$$

WAZ028-270210-
LOWER COLUMBIA BASIN...WASHINGTON

CITY            SKY/WX      TMP DP  RH  WIND    PRES   REMARKS
PASCO           MOCLDY      40  35  82  N3      29.70F
PROSSER AWOS    N/A         39  37  92  E6      29.72S
RICHLAND AWOS   CLOUDY      40  36  85  CALM    29.71S
#BENTON CITY    N/A         37  34  89  E1      29.62S
#CONNELL 5N     N/A         35  33  92  E1      29.72S
#CONNELL 5NW    N/A         35  33  92  CALM    29.68S
#ELTOPIA 6NW    N/A         38  36  92  CALM    28.66S
#KAHLOTUS       N/A         35  33  92  SE3     29.72S
#KENNEWICK 3S   N/A         38  34  85  CALM    29.72S
#PATERSON       N/A         40  35  82  E6      29.68R
#SAGEMOOR 2W    N/A         38  33  82  CALM    29.56S
#TOUCHET 2S     N/A         40  34  79  E2      29.69F
#WEST PASCO     N/A         40  35  82  E1      29.65F
$$

WAZ029-270210-
FOOTHILLS OF THE BLUES...WASHINGTON

CITY            SKY/WX      TMP DP  RH  WIND    PRES   REMARKS
WALLA WALLA AP  MOCLDY      39  34  82  CALM    29.67F
#CLYDE 6NW      N/A         35  32  89  CALM    29.71F
#DAYTON SCHOOL  N/A         34  27  75  CALM    29.71R
#LOWDEN 2SE     N/A         40  35  82  E1      29.66S
#PLEASANT VIEW 1N/A         32  31  96  CALM    29.76S
#PRESCOTT       N/A         36  34  92  CALM    29.70S
#WHITMAN COLLEGEN/A         39  34  82  SW5     29.76S
#WAITSBURG 5S   N/A         35  34  96  W2      29.81S
#WALLA WALLA 5E N/A         38  34  85  W5      N/A
#WALLA WALLA U  N/A         41  36  82  CALM    29.71S
#WHITMAN MISSIONN/A         41  35  79  CALM    29.72S
$$

WAZ030-270210-
BLUE MOUNTAINS...WASHINGTON

CITY            SKY/WX      TMP DP  RH  WIND    PRES   REMARKS
#DIXIE 5SE      N/A         29  28  96  SW7     29.53S
$$

ORZ009-041-WAZ024-270210-
COLUMBIA RIVER GORGE

CITY            SKY/WX      TMP DP  RH  WIND    PRES   REMARKS
HOOD RIVER AP   PTCLDY      39  32  76  CALM    29.69S
THE DALLES AP   CLOUDY      43  33  67  NW9     29.69S
#ARLINGTON AIRPON/A         38  34  85  NE9     29.71R
#ARLINGTON HS   N/A         41  33  73  W5      29.63R
#CELILO DOT     N/A         44  30  58  SW2     N/A
#LYLE           N/A         42  35  76  W7      29.71S
#MOSIER 1S      N/A         40  26  57  CALM    29.65S
#MURDOCK        N/A         42  34  73  NW7     29.66S
#RUFUS DOT      N/A         44  32  62  CALM    N/A
#SMITHVILLE     N/A         42  35  76  N10     29.65R

$$

ORZ510-270210-
NORTH CENTRAL OREGON

CITY            SKY/WX      TMP DP  RH  WIND    PRES   REMARKS
#CHENOWITH 1W   N/A         34  31  89  NW7     N/A
#COW CYN RST AREN/A         34  21  58  W8      N/A
#DUFUR 9E       N/A         31  30  96  W8      29.75R
#GRASS VALLEY 1SN/A         33  31  92  NW2     29.79R
#KENT DOT       N/A         34  24  66  N8      N/A
#MAUPIN SCHOOL  N/A         40  30  67  N6      29.70R
#MORO SCHOOL    N/A         36  35  96  CALM    29.72R
#SHANIKO 5WSW   N/A         32  18  56  N8      N/A
#SHANIKO 4NW    N/A         31  23  72  W7      29.56S
#TYGH VALLEY 2NEN/A         40  32  73  N9      29.67R
#WAPANITIA AIRPON/A         38  31  76  W2      29.70R
#WASCO DOT      N/A         40  30  67  E2      N/A
#WASCO AIRPORT  N/A         37  31  79  NE3     29.57R
#WASCO 5NE      N/A         37  31  79  CALM    29.69R
$$

ORZ511-270210-
CENTRAL OREGON

CITY            SKY/WX      TMP DP  RH  WIND    PRES   REMARKS
BEND AIRPORT    PTCLDY      36  14  40  W15     29.60R WCI 27
MADRAS AIRPORT  MOCLDY      37  19  48  W9      29.64R
PRINEVILLE AP   MOCLDY      36  21  54  NW9     29.60R
REDMOND AIRPORT PTCLDY      37  10  32  W16     29.60R WCI 28
#ASHWOOD SCHOOL N/A         38  22  52  CALM    29.60R
#BEND 1SW       N/A         31  23  72  NW2     N/A
#BEND-AWBREY    N/A         35  19  52  SW6     29.68S
#BEND-KIM LN    N/A         36  19  50  NW5     29.64R
#CULVER         N/A         36  21  54  W7      29.61R
#CULVER 8W      N/A         38  20  48  SW2     29.67R
#LAKE BILLY CHINN/A         35  N/A N/A SW9     29.74R
#POWELL BUTTE 3EN/A         35  22  59  NW9     N/A
#POWELL BUTTE   N/A         34  14  43  NW5     29.60R
#PRINEVILLE 3N  N/A         36  21  54  W14     29.67S WCI 27
#WARM SPRINGS   N/A         42  27  55  CALM    29.60R

$$


ORZ509-270210-
EAST SLOPES OF OREGON CASCADES

CITY            SKY/WX      TMP DP  RH  WIND    PRES   REMARKS
SISTERS AWOS    N/A         34  19  54  CALM    29.60S
#BLUE BOX PASS  N/A         27  N/A N/A NW2     N/A
#CAMP SHERMAN   N/A         31  20  63  SE1     29.76R
#LA PINE 4NW    N/A         28  21  75  CALM    29.78R
#LAVA BUTTE DOT N/A         29  17  60  SW3     N/A
#SISTERS ODOT   N/A         34  N/A N/A SE10    N/A
#SISTERS 1NW    N/A         36  15  42  W13     N/A    WCI 27
#SISTERS 3N     N/A         32  13  45  NW6     29.61S
#SUNRIVER       N/A         29  20  69  SE2     29.72F
#TUMALO 3W      N/A         34  13  41  NW7     29.57R
#WANOGA BUTTE D N/A         21  12  68  W12     N/A    WCI  9

$$

ORZ044-270210-
LOWER COLUMBIA BASIN...OREGON

CITY            SKY/WX      TMP DP  RH  WIND    PRES   REMARKS
HERMISTON       CLOUDY      41  35  79  E8      29.66S
#BOARDMAN SCHOOLN/A         41  36  82  N1      29.69R
#BOARDMAN 8SW   N/A         40  36  85  N3      29.68R
#ECHO 8SW       N/A         41  35  79  SE1     29.67S
#I-84 EX 198 DOTN/A         39  33  79  N8      N/A
#IONE SCHOOL    N/A         37  21  52  SW6     29.70R
#UMATILLA       N/A         41  33  73  E2      29.62R
$$

ORZ507-270210-
NORTHERN FOOTHILLS OF THE BLUES

CITY            SKY/WX      TMP DP  RH  WIND    PRES   REMARKS
PENDLETON AIRPT CLOUDY      36  34  92  E12     29.63F WCI 28
#ADAMS 3WNW     N/A         34  32  92  CALM    29.69F
#ATHENA         N/A         34  32  92  CALM    29.73S
#CAYUSE         N/A         36  32  85  E3      29.69F
#HELIX SCHOOL   N/A         34  32  92  N6      29.70F
#HELIX 3N       N/A         33  32  96  S3      29.63S
#HOLDMAN 5SE    N/A         36  34  92  E3      29.65F
#HOLDMAN 6E     N/A         34  33  96  CALM    29.50F
#M-F FERNDALE   N/A         40  33  76  CALM    29.67S
#M-F GROVE ELEM N/A         38  30  73  S2      29.65F
#M-FREEWATER 5SEN/A         38  31  76  CALM    29.67S
#PENDLETON DNTN N/A         37  32  82  NE6     29.66F
#PDT AQUATIC CTRN/A         36  32  85  NE5     29.66F
#PDT SUNRIDGE   N/A         36  33  89  E1      29.66F
#PENDLETON 7NW  N/A         37  32  82  E3      31.81S
#PILOT ROCK 1S  N/A         37  25  61  CALM    29.64S
#PILOT ROCK     N/A         37  30  75  NW3     29.65F
#TUTUILLA       N/A         36  32  85  CALM    29.68F
#UMAPINE 2E     N/A         40  35  82  CALM    29.66S
#WESTON SCHOOL  N/A         33  29  85  W1      29.58F

$$

ORZ508-270210-
SOUTHERN FOOTHILLS OF THE BLUES

CITY            SKY/WX      TMP DP  RH  WIND    PRES   REMARKS
LEXINGTON       LGT RAIN    37  34  89  W3      29.66R
#AJAX           N/A         33  25  72  NW1     29.80R
#CONDON SCHOOL  N/A         34  29  82  W5      29.58R
#CONDON 5W      N/A         31  26  81  W6      29.55R
#HEPPNER EOC    N/A         32  30  92  CALM    29.61R
#HEPPNER 4NE    N/A         31  29  92  W3      29.67S
#LEXINGTON 2SE  N/A         39  32  76  CALM    29.61R
#MIKKALO        N/A         35  31  85  N1      29.76R
#OLEX 4N        N/A         36  34  92  CALM    29.65R
#RUGGS 5NE      N/A         33  31  92  SW6     29.72F
#RUGGS 2SW      N/A         34  28  78  W7      29.70R

$$

ORZ502-503-270210-
BLUE MOUNTAINS

CITY            SKY/WX      TMP DP  RH  WIND    PRES   REMARKS
MEACHAM         LGT SNOW    29  23  78  CALM    29.57F
#BATTLE MTN DOT N/A         26  24  92  SE8     N/A
#GREENHORN 9SW  N/A         29  26  88  E2      29.63F
#HEPPNER 15SE   N/A         30  24  78  CALM    29.87R
#LADD CYN SMT   N/A         28  25  88  SE15    N/A    WCI 16
#LADD CREEK ODOTN/A         31  25  78  S2      N/A
#LONG CREEK HS  N/A         32  28  85  CALM    N/A
#N POWDER DOT   N/A         31  24  75  SE14    N/A    WCI 21
#PIKES PEAK     N/A         27  25  92  NW7     27.99S
#TOLLGATE       N/A         23  22  96  S3      29.45F
#TROY SCHOOL    N/A         39  30  70  CALM    29.54S
#UKIAH          N/A         30  26  85  NW1     29.60F
#WESTON 4E      N/A         29  28  96  S2      29.70S
$$

ORZ505-270210-
JOHN DAY BASIN

CITY            SKY/WX      TMP DP  RH  WIND    PRES   REMARKS
JOHN DAY        LGT SNOW    32  26  78  CALM    29.59S
#JOHN DAY KJDY  N/A         34  N/A N/A CALM    30.27R
#ANTELOPE 9ESE  N/A         42  24  48  SW2     N/A
#DAYVILLE SCHOOLN/A         32  27  82  W10     29.62R
#MITCHELL       N/A         31  28  88  CALM    29.79S
#MITCHELL 8NW   N/A         31  24  75  CALM    29.50R
#MONUMENT HS    N/A         39  27  62  N7      29.58R
#MT. VERNON 5SE N/A         29  24  81  E1      29.52S
#SPRAY SCHOOL   N/A         36  N/A N/A CALM    N/A
#WINLOCK        N/A         32  29  89  CALM    29.58S
$$

ORZ506-270210-
OCHOCO AND JOHN DAY HIGHLANDS

CITY            SKY/WX      TMP DP  RH  WIND    PRES   REMARKS
#HORSE RIDGE DO N/A         31  16  53  NW5     N/A
#PAULINA SCHOOL N/A         29  26  88  SW8     N/A
#PINE MTN OBS   N/A         21  15  77  SE5     N/A
#SENECA         N/A         28  N/A N/A N5      N/A
#SENECA 9NW     N/A         26  22  85  CALM    29.74S
$$

ORZ049-270210-
GRANDE RONDE VALLEY

CITY            SKY/WX      TMP DP  RH  WIND    PRES   REMARKS
LA GRANDE       CLOUDY      34  25  69  SW6     29.62F
#COVE           N/A         34  25  69  SE3     29.67S
#COVE SCHOOL    N/A         34  24  66  CALM    29.66S
#COVE 6NW       N/A         34  25  69  SE1     29.71S
#ELGIN 3N       N/A         29  24  81  S8      29.62F
#ELGIN 1E       N/A         31  27  85  S3      N/A
#IMBLER SCHOOL  N/A         29  27  92  CALM    29.62S
#ISLAND CITY 4N N/A         41  37  86  S1      29.72R
#UNION 1S       N/A         34  24  66  SE2     29.72S
$$

ORZ050-270210-
WALLOWA COUNTY

CITY            SKY/WX      TMP DP  RH  WIND    PRES   REMARKS
JOSEPH AIRPORT  PTCLDY      30  21  69  CALM    29.57S
#IMNAHA SCHOOL  N/A         39  22  50  E12     29.65S WCI 32
#IMNAHA 10S     N/A         29  19  66  CALM    30.11S
#JOSEPH 3N      N/A         32  16  51  CALM    29.64R
#JOSEPH 3W      N/A         26  16  65  CALM    29.45S
#LOSTINE        N/A         32  24  72  CALM    29.50R
#LOSTINE 3SE    N/A         31  24  75  SW3     29.62S
#MT HOWARD 8000 N/A         11   7  83  SW7     29.34S
#PROMISE 1S     N/A         28  23  81  E3      29.81R
#WALLOWA SCHOOL N/A         34  26  72  CALM    29.61S



$$



USA.gov is the U.S. government's official web portal to all federal, state and local government web resources and services.